AMC-14

Last updated on Jan. 24, 2020, 4:41 a.m. UTC

1 32708U 08011A   20023.76506243  .00000069  00000-0  00000+0 0  9994
2 32708  20.7344  49.3916 0041078 353.7432  12.8437  1.00270758 44677
UTC
Height (km)
Latitude
Longitude
Inclination
Orbital Period
UTC large
Height (km)
Speed (km/s)
/
Latitude / Longitude
Inclination (degrees)
Orbital Period (minutes)
Azimuth
Elevation
Range (km)
Doppler Factor
iOS Compass Heading
iOS Angle

Next 30 passes for location: Hong Kong

Rise time Rise Azimuth (degrees) Set time Set Azimuth (degrees) Duration Max altitude (degrees)

No matching passes for this satellites